Location: El Águila
(10.4167°N, 66.7167°W)
Time: 05:45:54
(UTC+00:00)

Cosmos 1486 Rocket - Pass Details

Date: 02 October 2022
Orbit: 759 x 782 km, 74.1° (Epoch: 26 November)

Event Time Altitude Azimuth Distance (km) Brightness Sun altitude
Rises 23:37:26 0° 190° (S) 3,232 7.4 -20.7°
Reaches altitude 10° 23:39:48 10° 189° (S) 2,309 6.6 -21.3°
Maximum altitude 23:45:03 82° 102° (ESE) 785 3.9 -22.6°
Enters shadow 23:49:40 14° 16° (NNE) 2,068 6.1 -23.7°
